Regional Weather Roundup
Issued by NWS Lake Charles, LA

Home | Current Version | Previous Version | Text Only | Print | Product List | Glossary On
Versions: 1 2 3 4 5 6 7 8 9 10 11 12 13 14 15 16 17 18 19 20 21 22 23 24 25 26 27
000
ASUS44 KLCH 231510
RWRLCH
REGIONAL WEATHER ROUNDUP
NATIONAL WEATHER SERVICE LAKE CHARLES LA
1000 AM CDT SUN APR 23 2017

Note: "fair" indicates few or no clouds below 12,000 feet with no
significant weather and/or obstructions to visibility.


ACROSS SOUTHEAST TEXAS

CITY           SKY/WX    TMP DP  RH WIND       PRES   REMARKS
BEAUMONT       PTSUNNY   61  46  57 N17       30.07R
BEAUMONT CITY  FAIR      60  45  57 N15G22    30.08S
ORANGE         CLOUDY    59  48  65 N16       30.08S
JASPER           N/A     59  50  71 N10       30.10S
$$

ACROSS CENTRAL LOUISIANA

CITY           SKY/WX    TMP DP  RH WIND       PRES   REMARKS
LEESVILLE      PTSUNNY   57  47  69 N9        30.04S
FULLERTON      CLOUDY    59  48  67 VRB5      30.02S
ALEXANDRIA INT CLOUDY    56  47  71 NW12      30.02S
ESLER FIELD    PTSUNNY   58  47  66 NW8G18    30.02F
DERIDDER       FAIR      60  47  62 N10G16    30.07S
OAKDALE        PTSUNNY   58  48  67 N8G18     30.04R
OPELOUSAS      CLOUDY    56  49  77 N13       30.02R
$$

ACROSS SOUTHWEST AND SOUTH CENTRAL LOUISIANA

CITY           SKY/WX    TMP DP  RH WIND       PRES   REMARKS
SULPHUR        CLOUDY    59  47  64 N10G22    30.06R
LAKE CHARLES   PTSUNNY   59  47  64 N16G24    30.04S
CHENNAULT INT  CLOUDY    57  48  72 NW13G20   30.05S
CAMERON PHI    NOT AVBL
DEQUINCY       PTSUNNY   57  45  65 N10G18    30.06S
JENNINGS       CLOUDY    56  48  73 N12G18    30.03S
LAFAYETTE      CLOUDY    63  51  65 N14       30.01S
NEW IBERIA     MOSUNNY   61  49  64 N16G24    30.00F
ABBEVILLE      PTSUNNY   61  54  77 N13G18    30.01F
PATTERSON      CLOUDY    59  53  80 NW13G18   29.98R
SALT POINT       N/A     60  52  74 N13G18    29.97R
$$

SELECTED SITES ACROSS THE REGION

CITY           SKY/WX    TMP DP  RH WIND       PRES   REMARKS
HOUSTON BUSH   MOSUNNY   61  45  55 N16G25    30.11S
HOUSTON HOBBY  MOSUNNY   60  44  55 NW15      30.10R
GALVESTON      SUNNY     62  47  57 N21G30    30.10R
COLLEGE STAT   SUNNY     61  45  55 N15G23    30.14S
CONROE         SUNNY     59  45  59 N12G20    30.12R
HUNTSVILLE     PTSUNNY   56  44  64 N10G16    30.13R
LUFKIN         MOSUNNY   57  46  66 NW10      30.10S
SHREVEPORT     CLOUDY    57  48  72 N9        30.08R
MONROE         CLOUDY    57  50  77 N15       30.04R
NATCHEZ MS     CLOUDY    54  50  86 NW13G21   30.01R
BATON ROUGE    CLOUDY    60  53  77 NW10      29.98S
N.O. INTL ARPT CLOUDY    62  58  86 NW12      29.94R
SLIDELL        LGT RAIN  61  58  90 N10       29.93R
$$

MARINE REPORTS

STATION/POSITION TIME  SKY/WX   TEMP    WIND        PRES    VSBY
                                AIR SEA DIR/SP/G
                 (UTC)          (F)     (DEG/KT/KT) (MB)    (MI)
BUOY 30 S HIGH I 1450            58 75  330/ 19/ 25 1018.0R
WVE H/P(F/S)=  4/ 4

SEA RIM ST PARK  1500            58     350/ 14/ 20 1018.7R
PORT ARTHUR      1448            56 75  350/ 12/ 17 1018.2R
SABINE PASS N    1448            57 77  360/ 14/ 18 1019.5R
TEXAS POINT      NOT AVBL
CALCASIEU PASS   1448            57 74   10/ 14/ 21   N/A
LK CHARLES BEACH 1448            56 73              1018.0R
MARSH ISLAND     1400            58                   N/A
FRESH WATER LOCK 1448            57 77  320/ 15/ 22 1016.0R
AMERADA PASS     1448            60 68  290/ 11/ 14 1014.6R
$$




USA.gov is the U.S. government's official web portal to all federal, state and local government web resources and services.